Wind_Speed
13 13 11 10 9 9 10 3 2 5 7 3 4 7 6 7 12 18 12 10 15 20 6 5 1 5 4 15 10 4 3 3 3 5 7 2 1 2 4 2 6 4 5 11
11 12 11 12 8 8 6 4 7 15 11 2 4 4 10 14 13 12 9 12 10 17 4 4 3 1 7 12 7 6 4 3 3 6 3 8 7 2 5 4 1 3 4 6
14 13 13 10 8 8 7 2 2 4 7 6 3 6 8 6 11 6 11 13 16 18 7 3 5 6 1 15 7 4 2 2 5 5 2 3 7 12 9 2 2 4 7 12
16 13 13 10 10 9 9 6 3 4 3 4 3 6 6 13 9 12 10 7 12 8 5 2 5 5 8 7 9 2 3 6 5 6 6 6 11 15 14 13 12 7 9 15
12 12 12 10 10 10 12 5 3 3 6 13 7 8 6 12 18 4 5 3 15 8 3 3 4 3 2 1 5 4 4 3 3 5 5 10 16 16 14 18 17 16 17 18
15 13 13 11 10 13 11 10 13 9 8 3 3 3 10 8 7 8 11 8 5 9 5 3 4 4 7 7 1 3 2 2 3 9 6 9 12 15 14 17 16 10 15 10
15 14 13 13 11 15 18 15 9 7 4 5 5 7 14 8 7 4 12 14 6 5 4 6 7 10 14 13 11 12 4 3 2 4 2 10 7 6 13 17 15 9 3 5
14 15 14 13 12 15 18 18 16 6 4 6 7 10 3 8 11 4 4 9 9 8 2 3 4 4 4 7 13 12 13 7 1 3 4 12 18 9 2 5 7 7 4 3
16 15 15 13 13 14 14 16 15 11 4 4 5 11 6 1 3 6 6 13 7 2 3 3 2 3 2 5 5 5 11 12 6 2 3 5 4 5 7 12 3 1 2 2
16 15 15 14 14 13 15 16 13 14 5 9 4 3 4 6 3 1 2 12 9 3 2 1 2 3 4 4 3 1 3 7 14 9 3 7 10 9 17 2 2 3 4 4
17 15 16 16 16 15 16 18 16 15 7 21 23 20 19 13 6 0 6 6 3 3 1 2 4 3 3 3 6 5 4 6 5 5 4 9 6 9 2 4 2 2 0 6
20 19 17 18 17 16 15 19 16 15 20 16 10 14 18 16 16 12 5 2 2 3 2 2 3 2 2 4 3 2 5 2 2 6 5 3 6 3 2 4 2 3 5 9
22 21 20 19 19 19 19 20 16 13 15 22 27 28 17 17 26 17 7 6 5 5 1 1 2 4 3 2 3 5 3 4 2 1 4 7 10 5 2 6 9 5 7 2
27 23 21 22 20 17 18 22 20 16 6 5 7 8 14 12 10 15 27 27 14 14 10 3 3 3 3 3 5 6 3 6 4 3 4 10 12 2 15 15 15 9 4 2
25 23 22 23 20 18 18 21 22 19 14 3 9 20 23 13 11 16 14 23 21 12 3 3 3 4 2 3 3 3 3 2 3 3 11 8 15 15 16 14 11 4 7 2
24 24 25 24 20 18 17 13 22 22 21 6 3 7 15 19 9 9 19 16 21 21 5 4 4 5 3 2 2 6 11 22 19 5 16 22 19 5 3 6 7 7 6 7
26 26 24 24 20 24 22 6 5 18 24 4 4 5 5 7 13 17 13 15 10 10 6 5 4 4 2 2 3 7 16 21 19 16 7 12 18 7 7 8 8 6 9 10
27 26 25 21 21 22 30 7 5 19 20 5 3 4 5 7 5 4 6 7 11 10 5 3 2 3 5 2 7 14 18 12 13 12 10 12 15 14 6 3 2 5 8 10
21 20 20 24 22 15 29 12 13 25 10 6 5 2 3 5 5 3 6 7 2 6 3 3 5 2 2 5 10 16 19 15 15 9 7 9 14 12 7 3 4 4 1 3
19 29 15 8 16 15 21 17 3 10 7 6 4 7 3 4 5 3 2 4 2 2 5 6 3 2 11 11 11 14 17 16 16 16 19 18 15 15 11 7 5 6 2 1
41 11 5 22 29 18 11 7 8 6 3 7 8 19 4 6 3 2 4 2 1 1 3 4 2 2 3 10 12 14 15 17 13 9 8 9 9 10 8 9 4 2 2 1
20 18 33 25 8 6 5 5 4 5 5 7 6 10 17 4 4 3 1 2 1 4 1 2 2 3 8 10 13 13 15 18 14 12 11 10 8 6 5 6 4 2 1 1
35 16 7 8 5 5 5 5 3 3 5 9 8 2 9 4 3 3 1 2 4 1 2 2 3 6 8 11 13 11 13 14 14 14 11 9 8 6 4 3 3 3 3 4
7 5 6 4 4 4 4 4 4 5 4 17 20 5 3 3 2 2 3 4 1 2 1 2 2 6 10 11 11 12 11 12 14 13 11 10 8 6 4 2 2 3 6 9
4 3 3 2 3 3 5 4 5 4 12 19 10 6 3 2 2 2 1 2 3 2 1 1 3 5 8 9 11 12 12 13 13 11 8 7 5 4 3 1 1 3 7 10
4 6 3 6 6 3 5 7 5 5 12 11 6 3 2 2 4 3 3 2 1 2 1 2 4 5 8 9 10 11 11 13 12 10 8 5 3 2 1 2 4 7 9 13
4 4 12 11 11 8 6 6 5 4 2 2 3 3 5 1 3 3 3 1 2 7 4 3 5 7 10 9 10 9 10 10 10 10 7 5 3 1 2 5 8 9 11 14
Wind_Direction
283 289 303 300 297 299 298 311 286 145 79 175 215 237 241 234 276 278 290 296 277 279 256 284 279 299 358 359 344 19 335 143 298 249 296 224 141 16 327 306 325 312 266 262
283 289 287 280 277 273 285 276 277 286 268 198 236 273 285 273 285 288 279 265 302 299 255 279 222 7 339 11 7 340 343 6 346 312 37 42 70 26 1 217 235 259 273 270
284 285 277 268 256 257 251 265 313 292 201 255 285 302 276 262 267 274 276 276 269 273 256 233 289 311 234 334 313 252 342 195 189 236 301 335 301 308 318 105 243 328 281 292
286 274 259 253 249 244 233 197 237 258 288 280 263 276 296 277 276 268 277 286 242 240 265 280 286 327 344 17 12 313 165 222 234 242 258 274 281 288 292 276 267 232 273 276
276 273 253 250 232 235 226 207 224 270 285 284 284 293 250 292 294 251 305 284 311 320 331 256 281 15 3 300 336 16 346 281 245 270 304 303 294 283 280 272 267 271 265 264
261 272 250 243 233 223 225 239 254 274 260 274 294 227 263 266 308 292 223 250 279 302 288 314 289 273 258 249 290 298 302 336 21 281 323 315 284 269 257 249 248 252 264 291
259 256 256 236 231 231 232 232 238 241 253 220 240 265 282 318 329 240 271 304 219 290 299 281 275 270 261 251 239 214 231 175 154 274 264 262 265 291 275 248 237 250 202 33
257 253 248 239 236 232 236 241 246 251 273 314 280 289 314 335 338 303 264 304 292 294 261 29 335 323 300 258 236 224 209 195 212 178 222 288 304 283 43 319 217 97 104 336
259 254 244 235 230 232 233 241 240 242 296 229 296 323 305 306 309 340 1 347 328 231 99 74 215 257 276 291 288 194 222 201 192 154 204 259 224 285 347 328 187 246 260 263
258 250 242 227 230 233 238 247 240 242 260 269 314 257 305 326 349 311 335 340 343 38 83 111 228 249 233 258 266 272 172 179 206 213 231 275 271 298 302 224 154 242 292 333
255 253 243 235 231 233 233 245 240 235 240 273 274 274 290 287 284 10 331 355 346 330 89 221 247 237 279 304 266 290 252 177 177 188 172 254 344 310 210 213 184 184 86 349
252 251 248 244 240 233 230 242 238 240 244 263 262 268 274 264 265 266 242 249 89 278 9 28 311 306 309 300 283 328 354 345 224 164 207 274 310 258 148 290 312 344 346 0
250 252 246 241 238 238 234 240 243 229 253 275 268 274 286 263 248 240 249 233 206 188 201 185 265 284 353 313 296 302 270 297 218 272 39 329 340 27 6 289 279 354 330 106
252 250 242 239 242 240 226 229 232 224 248 289 286 291 276 284 254 243 232 245 249 268 278 207 227 253 256 275 272 289 286 328 314 1 318 325 15 344 273 292 284 274 258 323
244 240 235 234 235 231 223 230 232 224 212 287 292 294 291 274 247 240 240 230 236 241 216 227 219 238 250 274 292 279 200 228 43 294 251 208 238 303 307 299 300 249 226 356
240 237 228 228 226 210 206 221 236 222 221 255 285 293 279 290 250 258 235 234 234 232 202 240 244 253 243 265 271 288 297 313 317 280 309 293 310 5 38 116 111 98 63 29
237 231 225 212 212 197 186 185 211 201 203 237 279 288 268 258 245 253 238 232 220 221 214 220 228 239 271 232 235 280 321 322 341 30 354 31 36 38 66 76 87 72 58 44
229 225 216 211 197 194 196 176 197 175 174 196 257 265 296 216 168 179 207 195 188 201 208 227 241 261 207 256 15 27 18 21 18 32 65 69 66 66 50 97 32 17 33 39
225 208 184 177 187 183 195 161 176 169 181 190 210 224 251 175 138 167 198 181 172 195 204 210 194 224 237 27 31 27 20 19 354 14 44 36 42 51 56 346 312 296 354 56
185 164 160 171 174 168 175 195 242 196 214 234 229 206 275 215 159 150 258 163 190 205 218 171 209 138 73 49 54 34 21 14 10 20 12 0 1 7 4 336 286 265 245 89
146 146 125 144 145 139 167 168 187 200 238 216 222 202 211 219 117 159 184 219 192 231 249 173 214 124 48 23 30 11 360 357 2 8 5 351 356 359 352 336 333 217 196 173
149 134 130 131 138 175 179 179 179 193 219 196 187 209 201 179 144 101 212 184 102 246 155 228 159 73 28 15 13 11 350 347 356 359 354 352 352 4 347 329 312 280 217 161
128 125 149 153 173 174 202 153 186 203 208 178 162 133 161 138 126 108 161 109 227 338 66 178 64 47 18 4 1 358 344 348 350 350 354 351 343 347 327 304 253 232 222 191
133 139 134 179 190 210 190 184 179 194 208 159 157 107 127 129 85 133 116 237 281 276 223 141 67 23 349 354 348 348 351 350 347 353 354 348 343 341 343 322 271 227 198 182
90 124 143 156 151 105 124 114 109 99 144 144 109 79 93 57 109 195 158 196 230 38 195 89 40 5 352 351 347 351 352 352 354 356 355 355 343 330 331 4 189 189 181 175
52 48 69 113 92 40 68 93 88 94 120 114 83 99 100 231 152 164 196 224 39 240 132 111 346 345 350 350 348 350 349 351 358 4 9 3 347 2 72 118 150 161 169 167
57 39 55 76 74 58 61 59 27 138 106 85 127 149 201 139 146 77 29 120 215 148 132 13 343 347 350 340 338 340 345 349 2 12 23 28 41 76 147 149 144 157 161 165
Height
1487 1488 1488 1488 1487 1487 1486 1487 1489 1485 1485 1489 1484 1479 1476 1472 1469 1472 1468 1466 1463 1460 1449 1445 1444 1438 1435 1433 1430 1429 1428 1433 1436 1428 1420 1419 1423 1431 1436 1441 1434 1430 1420 1408
1483 1484 1485 1485 1485 1485 1486 1486 1486 1482 1482 1491 1478 1476 1473 1470 1467 1465 1463 1460 1454 1452 1447 1447 1438 1437 1437 1435 1434 1432 1428 1436 1442 1428 1423 1424 1429 1432 1436 1439 1441 1433 1435 1415
1479 1480 1481 1482 1483 1483 1485 1486 1486 1480 1479 1479 1478 1477 1472 1468 1464 1463 1460 1455 1452 1451 1444 1441 1440 1435 1436 1435 1433 1432 1431 1435 1438 1440 1435 1435 1435 1429 1431 1437 1447 1434 1430 1416
1474 1475 1477 1479 1480 1481 1483 1483 1482 1480 1484 1479 1476 1477 1473 1467 1464 1457 1455 1449 1443 1445 1443 1440 1440 1435 1432 1432 1433 1432 1434 1438 1435 1431 1432 1434 1433 1431 1429 1431 1429 1431 1417 1411
1471 1472 1473 1474 1476 1479 1480 1481 1481 1479 1478 1476 1474 1471 1464 1465 1457 1456 1451 1452 1446 1444 1443 1442 1441 1440 1440 1439 1437 1436 1436 1438 1431 1430 1429 1429 1429 1426 1426 1422 1418 1413 1407 1402
1467 1468 1469 1471 1473 1475 1476 1477 1478 1480 1474 1472 1473 1466 1460 1458 1454 1449 1449 1450 1448 1443 1440 1440 1438 1437 1437 1438 1439 1439 1437 1436 1436 1430 1430 1430 1427 1416 1413 1407 1406 1404 1406 1397
1462 1464 1465 1466 1469 1470 1472 1474 1476 1474 1469 1467 1463 1459 1457 1454 1451 1450 1446 1444 1443 1440 1438 1439 1437 1435 1433 1432 1432 1434 1436 1436 1439 1440 1436 1439 1409 1403 1402 1398 1394 1392 1394 1398
1457 1459 1460 1462 1465 1466 1468 1470 1473 1474 1467 1463 1459 1458 1455 1452 1449 1447 1444 1442 1441 1439 1440 1444 1439 1436 1432 1423 1421 1423 1426 1432 1446 1449 1438 1418 1408 1398 1398 1397 1391 1393 1395 1396
1453 1454 1456 1458 1461 1463 1464 1466 1468 1469 1467 1459 1460 1458 1455 1455 1453 1447 1445 1442 1440 1439 1441 1447 1446 1441 1430 1433 1418 1415 1419 1423 1431 1438 1436 1423 1399 1395 1396 1395 1395 1392 1392 1392
1447 1449 1451 1454 1456 1459 1460 1461 1464 1465 1462 1458 1458 1457 1455 1452 1450 1449 1445 1444 1440 1439 1446 1449 1450 1439 1426 1425 1420 1417 1417 1422 1424 1426 1440 1419 1397 1394 1393 1402 1400 1394 1392 1389
1442 1444 1446 1449 1452 1454 1456 1457 1460 1462 1459 1455 1454 1454 1454 1453 1452 1451 1449 1448 1446 1443 1447 1445 1440 1436 1425 1423 1412 1414 1410 1412 1419 1423 1436 1423 1395 1391 1391 1394 1390 1390 1390 1387
1437 1439 1441 1444 1447 1450 1452 1453 1456 1459 1459 1454 1451 1450 1450 1451 1450 1451 1449 1449 1449 1449 1448 1447 1444 1433 1430 1426 1417 1415 1404 1408 1409 1413 1410 1399 1397 1394 1391 1390 1388 1386 1386 1386
1430 1433 1435 1438 1441 1444 1448 1449 1453 1455 1456 1451 1448 1444 1444 1443 1444 1446 1448 1446 1446 1446 1446 1447 1447 1440 1432 1428 1420 1415 1410 1408 1403 1400 1401 1400 1397 1393 1391 1390 1388 1387 1387 1386
1423 1426 1429 1432 1436 1439 1443 1445 1448 1452 1454 1448 1441 1439 1438 1439 1438 1438 1439 1440 1443 1444 1444 1445 1445 1443 1433 1428 1421 1415 1412 1408 1402 1401 1401 1402 1395 1393 1388 1387 1386 1387 1387 1385
1415 1419 1423 1427 1431 1435 1439 1441 1444 1448 1453 1447 1440 1436 1432 1432 1432 1432 1434 1436 1438 1440 1441 1441 1439 1435 1432 1425 1421 1413 1408 1406 1406 1408 1403 1399 1394 1390 1386 1383 1382 1383 1385 1385
1407 1411 1416 1421 1425 1431 1435 1438 1439 1443 1447 1449 1443 1432 1426 1426 1427 1429 1430 1431 1434 1436 1437 1436 1433 1429 1430 1427 1421 1408 1405 1403 1403 1402 1397 1394 1391 1390 1386 1383 1384 1386 1386 1385
1399 1404 1409 1415 1420 1425 1429 1433 1433 1435 1443 1446 1442 1431 1423 1422 1422 1424 1426 1428 1429 1431 1431 1430 1428 1426 1427 1426 1422 1406 1407 1405 1401 1398 1396 1395 1392 1389 1388 1388 1388 1388 1387 1386
1391 1397 1404 1411 1417 1423 1428 1430 1431 1433 1441 1444 1441 1431 1423 1418 1418 1421 1422 1423 1424 1426 1426 1425 1424 1422 1421 1419 1415 1412 1408 1403 1401 1400 1398 1397 1397 1393 1390 1390 1391 1390 1388 1387
1383 1391 1400 1409 1413 1416 1421 1430 1430 1431 1438 1436 1433 1430 1424 1416 1417 1419 1419 1419 1421 1422 1422 1421 1422 1418 1416 1418 1417 1415 1412 1410 1407 1403 1399 1397 1396 1396 1395 1393 1392 1391 1390 1389
1378 1388 1397 1402 1406 1414 1424 1432 1432 1429 1429 1427 1424 1422 1421 1416 1415 1417 1419 1417 1419 1418 1417 1417 1417 1416 1419 1420 1419 1417 1414 1412 1407 1403 1400 1398 1397 1397 1396 1395 1393 1392 1391 1389
1374 1384 1392 1398 1407 1416 1422 1424 1427 1425 1423 1418 1413 1414 1414 1413 1415 1417 1417 1418 1417 1419 1414 1414 1412 1412 1420 1420 1419 1416 1414 1412 1410 1408 1406 1404 1401 1399 1397 1394 1393 1392 1392 1391
1373 1378 1390 1399 1406 1410 1412 1414 1415 1415 1411 1405 1405 1405 1409 1410 1411 1413 1417 1418 1418 1419 1411 1410 1407 1421 1423 1421 1419 1416 1413 1411 1408 1407 1404 1402 1400 1399 1398 1396 1395 1394 1393 1392
1375 1383 1390 1393 1400 1401 1402 1399 1408 1406 1397 1396 1399 1403 1406 1409 1410 1414 1415 1419 1421 1411 1421 1412 1420 1424 1423 1421 1419 1417 1415 1412 1409 1406 1404 1402 1400 1398 1397 1396 1395 1394 1394 1393
1374 1378 1384 1387 1392 1389 1389 1389 1388 1388 1389 1391 1395 1400 1402 1406 1409 1411 1419 1415 1411 1410 1417 1417 1424 1424 1423 1421 1419 1417 1415 1412 1409 1406 1404 1402 1400 1398 1397 1396 1395 1395 1395 1394
1371 1375 1384 1385 1383 1384 1385 1385 1387 1388 1389 1391 1396 1400 1403 1407 1410 1410 1413 1410 1409 1414 1424 1425 1425 1424 1422 1421 1418 1416 1414 1412 1409 1407 1404 1402 1401 1399 1398 1397 1396 1396 1396 1397
1375 1379 1381 1382 1383 1386 1386 1388 1389 1389 1391 1393 1397 1401 1406 1411 1411 1408 1406 1410 1417 1428 1425 1425 1425 1424 1422 1420 1419 1416 1414 1412 1409 1407 1405 1403 1402 1401 1399 1399 1398 1398 1398 1399
1380 1385 1384 1384 1387 1390 1391 1391 1392 1392 1392 1395 1398 1402 1405 1404 1405 1414 1419 1428 1426 1424 1425 1425 1424 1423 1421 1420 1418 1417 1415 1413 1410 1408 1407 1406 1404 1403 1402 1401 1401 1401 1401 1402